Weather History for Lamoni, IA

Change the Weather History Date:

Thursday, September 19, 2013

  Actual Average Record
Temperature  
Mean Temperature 77 °F 64 °F  
Max Temperature 90 °F 75 °F 96 °F (1948)
Min Temperature 63 °F 53 °F 32 °F (1991)
Degree Days  
Heating Degree Days 0 3  
Month to date heating degree days 16 33  
Since 1 July heating degree days 25 41  
Cooling Degree Days 12 2  
Month to date cooling degree days 175 76  
Year to date cooling degree days 1044 914  
Growing Degree Days 26 (Base 50)    
Moisture  
Dew Point 65 °F    
Average Humidity 74    
Maximum Humidity 100    
Minimum Humidity 47    
Precipitation  
Precipitation 1.07 in 0.10 in 4.15 in (2010)
Month to date precipitation 3.12 2.41  
Sea Level Pressure  
Sea Level Pressure 29.83 in    
Wind  
Wind Speed 10 mph (SW)    
Max Wind Speed 38 mph    
Max Gust Speed 53 mph    
Visibility 9 miles    
Events Rain , Thunderstorm    
T = Trace of Precipitation, MM = Missing Value Source: NWS Daily Summary

Daily Weather History Graph

Daily Weather History Graph

Search for Another Location

Airport:

Trip Planner

Search our weather history database for the weather conditions in past years. The results will help you decide how hot, cold, wet, or windy it might be!

Date:

Astronomy

Sep. 19, 2013 Rise Set
Actual Time 7:00 AM CDT 7:17 PM CDT
Civil Twilight 6:33 AM CDT 7:44 PM CDT
Nautical Twilight 6:01 AM CDT 8:16 PM CDT
Astronomical Twilight 5:28 AM CDT 8:49 PM CDT
Moon 7:15 PM CDT (9/19) 7:10 AM CDT (9/19)
Length of Visible Light 13h 11m
Length of Day
12h 16m
Full, 100% of the Moon is Illuminated
Sep 19
Full
Sep 26
Last Quarter
Oct 4
New
Oct 11
First Quarter
Oct 18
Full

Hourly Weather History & Observations

Time (CDT) Temp. Heat Index Dew Point Humidity Pressure Visibility Wind Dir Wind Speed Gust Speed Precip Events Conditions
12:53 AM 73.9 °F - 69.1 °F 85% 29.82 in 10.0 mi South 12.7 mph - N/A   Clear
1:53 AM 73.9 °F - 69.1 °F 85% 29.82 in 10.0 mi South 11.5 mph - N/A   Clear
2:53 AM 73.0 °F - 68.0 °F 84% 29.82 in 10.0 mi South 11.5 mph - N/A   Clear
3:53 AM 72.0 °F - 68.0 °F 87% 29.81 in 10.0 mi South 10.4 mph - N/A   Clear
4:53 AM 72.0 °F - 66.9 °F 84% 29.81 in 10.0 mi South 10.4 mph - N/A   Clear
5:53 AM 70.0 °F - 66.9 °F 90% 29.81 in 9.0 mi South 10.4 mph - N/A   Clear
6:53 AM 70.0 °F - 66.9 °F 90% 29.81 in 10.0 mi South 9.2 mph - N/A   Clear
7:53 AM 71.1 °F - 66.0 °F 84% 29.82 in 10.0 mi South 8.1 mph - N/A   Clear
8:53 AM 75.0 °F - 66.9 °F 76% 29.81 in 10.0 mi South 12.7 mph - N/A   Scattered Clouds
9:53 AM 78.1 °F - 66.9 °F 68% 29.83 in 10.0 mi SSW 15.0 mph 20.7 mph N/A Thunderstorm Thunderstorm
10:09 AM 78.8 °F - 66.2 °F 65% 29.85 in 10.0 mi SSW 13.8 mph 21.9 mph N/A   Mostly Cloudy
10:30 AM 78.8 °F - 66.2 °F 65% 29.87 in 10.0 mi SW 12.7 mph - N/A Thunderstorm Mostly Cloudy
10:45 AM 78.8 °F - 66.2 °F 65% 29.88 in 10.0 mi WSW 9.2 mph 18.4 mph N/A   Overcast
10:53 AM 79.0 °F - 66.9 °F 66% 29.85 in 10.0 mi SSW 9.2 mph - N/A   Mostly Cloudy
11:05 AM 78.8 °F - 68.0 °F 69% 29.88 in 10.0 mi SSW 9.2 mph - N/A Thunderstorm Mostly Cloudy
11:20 AM 80.6 °F 83.2 °F 68.0 °F 65% 29.88 in 10.0 mi SW 12.7 mph - N/A   Scattered Clouds
11:53 AM 82.0 °F 84.9 °F 68.0 °F 62% 29.84 in 10.0 mi South 9.2 mph - N/A   Clear
12:53 PM 82.9 °F 85.4 °F 66.9 °F 58% 29.82 in 10.0 mi SSW 13.8 mph 19.6 mph N/A   Clear
1:53 PM 87.1 °F 90.6 °F 68.0 °F 53% 29.79 in 10.0 mi SSW 17.3 mph 25.3 mph N/A   Clear
2:53 PM 89.1 °F 92.1 °F 66.9 °F 48% 29.74 in 10.0 mi South 13.8 mph 21.9 mph N/A   Clear
3:53 PM 88.0 °F 90.3 °F 66.0 °F 48% 29.71 in 10.0 mi SSW 15.0 mph 26.5 mph N/A   Mostly Cloudy
4:34 PM 86.0 °F 88.2 °F 66.2 °F 51% 29.79 in 10.0 mi WSW 13.8 mph 23.0 mph N/A Thunderstorm Scattered Clouds
4:42 PM 71.6 °F - 60.8 °F 69% 29.85 in 10.0 mi WNW 27.6 mph 52.9 mph N/A Thunderstorm Unknown
4:50 PM 66.2 °F - 62.6 °F 88% 29.85 in 4.0 mi NW 24.2 mph 42.6 mph 0.01 in Rain , Thunderstorm Thunderstorms and Rain
4:53 PM 64.9 °F - 62.1 °F 90% 29.81 in 1.8 mi NW 27.6 mph 38.0 mph 0.04 in Rain , Thunderstorm Heavy Thunderstorms and Rain
5:14 PM 64.4 °F - 62.6 °F 94% 29.83 in 3.0 mi NW 17.3 mph 26.5 mph 0.56 in Rain , Thunderstorm Thunderstorms and Rain
5:53 PM 64.9 °F - 63.0 °F 93% 29.83 in 3.0 mi WNW 5.8 mph - 0.72 in Rain , Thunderstorm Light Thunderstorms and Rain
6:27 PM 64.4 °F - 64.4 °F 100% 29.83 in 8.0 mi Calm Calm - 0.15 in Rain Light Rain
6:53 PM 64.9 °F - 64.0 °F 97% 29.82 in 7.0 mi East 4.6 mph - 0.22 in Rain Rain
7:07 PM 64.4 °F - 64.4 °F 100% 29.83 in 7.0 mi ESE 4.6 mph - 0.03 in Rain , Thunderstorm Light Thunderstorms and Rain
7:27 PM 64.4 °F - 64.4 °F 100% 29.83 in 6.0 mi Variable 3.5 mph - 0.07 in Rain , Thunderstorm Light Rain
7:42 PM 64.4 °F - 64.4 °F 100% 29.83 in 10.0 mi Calm Calm - 0.09 in Rain Light Rain
7:53 PM 64.9 °F - 64.0 °F 97% 29.84 in 10.0 mi WNW 5.8 mph - 0.09 in   Overcast
8:19 PM 66.2 °F - 64.4 °F 94% 29.88 in 10.0 mi West 4.6 mph - N/A   Overcast
8:53 PM 64.9 °F - 64.0 °F 97% 29.86 in 10.0 mi WNW 3.5 mph - N/A   Mostly Cloudy
9:21 PM 64.4 °F - 62.6 °F 94% 29.90 in 10.0 mi WSW 3.5 mph - N/A   Partly Cloudy
9:53 PM 64.9 °F - 63.0 °F 93% 29.87 in 10.0 mi SSW 4.6 mph - N/A   Scattered Clouds
10:07 PM 64.4 °F - 64.4 °F 100% 29.90 in 10.0 mi WSW 4.6 mph - N/A   Mostly Cloudy
10:53 PM 64.9 °F - 64.0 °F 97% 29.88 in 10.0 mi WSW 9.2 mph - N/A   Overcast
11:53 PM 64.9 °F - 62.1 °F 90% 29.89 in 10.0 mi West 5.8 mph - N/A   Partly Cloudy